FW5839 Weather Reports


Display with metric or nautical units.
time (UTC)temp
F
wind
direction
speed
MPH
gust
MPH
rain 1hr
in
rain 24hr
in
rain mn
in
humidity
%
barometer
mb
20260508084535 46 226 17.0 27.0 0.00 1.39 0.00 96 1004.4
20260508083038 46 218 18.0 31.0 0.00 1.39 0.00 96 1004.2
20260508081531 46 222 17.0 28.0 0.00 1.39 0.00 96 1004.1
20260508080050 46 244 21.0 32.0 0.00 1.39 0.00 96 1003.9
20260508074528 46 212 23.0 34.0 0.00 1.39 0.00 97 1003.9
20260508071513 47 226 21.0 32.0 0.00 1.39 0.00 97 1003.6
20260508070018 47 235 24.0 34.0 0.00 1.39 0.00 97 1003.4
20260508064519 47 235 18.0 29.0 0.00 1.39 0.00 97 1003.3
20260508063003 47 248 19.0 31.0 0.00 1.39 0.00 97 1003.2
20260508061600 47 219 18.0 29.0 0.00 1.39 0.00 97 1003.4
20260508060059 47 214 24.0 35.0 0.00 1.39 0.00 97 1003.4
20260508054558 0 0.0 0.0 0.00 1.39 0.00 1003.7
20260508051501 51 229 18.0 26.0 0.09 1.40 0.10 97 1003.4
20260508050126 52 229 14.0 22.0 0.09 1.39 0.09 97 1003.7
20260508044559 52 242 14.0 19.0 0.06 1.36 0.06 97 1003.8
20260508043104 52 217 13.0 20.0 0.03 1.33 0.03 97 1003.7
20260508041601 52 231 13.0 33.0 0.02 1.31 0.02 97 1003.8
20260508040058 0 0.0 0.0 0.00 1.30 0.00 1003.9
20260508033045 53 220 19.0 29.0 0.12 1.35 0.05 97 1003.3
20260508031539 54 197 16.0 24.0 0.10 1.31 0.02 97 1003.0
20260508030036 55 223 18.0 26.0 0.09 1.30 0.00 97 1002.9
20260508024535 56 234 10.0 15.0 0.06 1.26 0.91 97 1002.2
20260508023033 56 202 7.0 12.0 0.03 1.23 0.88 97 1002.0
20260508021533 55 133 10.0 17.0 0.02 1.21 0.87 97 1001.7
20260508020030 56 196 12.0 18.0 0.02 1.20 0.86 97 1001.8
20260508014530 56 135 13.0 19.0 0.05 1.20 0.85 97 1001.0
20260508013030 56 135 16.0 23.0 0.09 1.20 0.85 97 1001.3
20260508011527 56 180 13.0 30.0 0.18 1.19 0.84 97 1001.4
20260508010026 60 202 10.0 17.0 0.35 1.17 0.83 97 1000.2
20260508004523 61 223 10.0 16.0 0.38 1.14 0.80 97 1001.6
20260508003019 60 277 10.0 14.0 0.48 1.09 0.74 97 1002.1
20260508001515 61 258 7.0 13.0 0.63 1.00 0.65 97 1001.6
20260508000014 60 316 2.0 4.0 0.46 0.80 0.46 97 1001.0
20260507234522 60 274 6.0 8.0 0.43 0.77 0.43 97 1000.7
20260507233016 60 282 3.0 9.0 0.25 0.60 0.25 97 1000.5
20260507231506 60 349 8.0 12.0 0.02 0.37 0.02 97 999.9
20260507221530 60 14 10.0 14.0 0.28 0.39 0.31 97 999.6
20260507220026 60 341 3.0 6.0 0.26 0.35 0.26 97 1001.8
20260507214519 60 39 3.0 5.0 0.19 0.28 0.19 97 1001.7
20260507213023 59 350 7.0 11.0 0.11 0.20 0.11 96 1002.5
20260507211517 59 91 4.0 11.0 0.01 0.09 0.01 96 1002.4
20260507191531 61 119 15.0 24.0 0.09 0.09 0.09 95 1002.5
20260507190042 61 206 12.0 18.0 0.09 0.09 0.09 95 1003.1
20260507184533 61 185 10.0 21.0 0.01 0.01 0.01 92 1001.8
20260507181505 78 279 25.0 37.0 0.00 0.00 0.00 69 999.6
20260507180005 78 276 22.0 33.0 0.00 0.00 0.00 70 999.5
20260507174506 78 299 23.0 36.0 0.00 0.00 0.00 69 999.7
20260507171534 78 274 26.0 36.0 0.00 0.00 0.00 70 999.7
20260507170033 78 276 22.0 38.0 0.00 0.00 0.00 71 1000.1
20260507164544 78 307 23.0 34.0 0.00 0.00 0.00 71 1000.2
20260507163029 77 280 24.0 37.0 0.00 0.00 0.00 71 1000.5
20260507161527 78 279 27.0 40.0 0.00 0.00 0.00 71 1000.7
20260507160028 78 289 20.0 35.0 0.00 0.00 0.00 71 1000.9
20260507154522 77 303 19.0 31.0 0.00 0.00 0.00 73 1001.2
20260507153018 76 276 18.0 28.0 0.00 0.00 0.00 75 1001.4
20260507151513 74 301 13.0 25.0 0.00 0.00 0.00 81 1001.8
20260507150010 73 304 14.0 23.0 0.00 0.00 0.00 83 1001.9
20260507144504 72 298 13.0 18.0 0.00 0.00 0.00 83 1002.4
20260507143001 72 298 12.0 17.0 0.00 0.00 0.00 83 1002.8
20260507141604 71 320 14.0 23.0 0.00 0.00 0.00 83 1003.3
20260507140059 71 320 15.0 23.0 0.00 0.00 0.00 83 1003.4
20260507134558 71 301 16.0 27.0 0.00 0.00 0.00 83 1003.4
20260507133058 71 314 17.0 27.0 0.00 0.00 0.00 83 1003.2
20260507131602 70 299 21.0 31.0 0.00 0.00 0.00 83 1003.3
20260507130057 71 308 21.0 33.0 0.00 0.00 0.00 82 1003.2
20260507124603 72 307 22.0 34.0 0.00 0.00 0.00 80 1003.1
20260507123053 72 306 24.0 32.0 0.00 0.00 0.00 81 1003.9
20260507121551 71 294 19.0 31.0 0.00 0.00 0.00 82 1004.6
20260507120052 71 307 22.0 36.0 0.00 0.00 0.00 82 1004.6
20260507114604 71 293 23.0 31.0 0.00 0.00 0.00 82 1005.0
20260507113104 71 292 19.0 27.0 0.00 0.00 0.00 83 1004.7
20260507111549 71 296 22.0 31.0 0.00 0.00 0.00 82 1004.7
20260507110047 71 295 21.0 29.0 0.00 0.00 0.00 83 1004.9
20260507104545 71 323 16.0 27.0 0.00 0.00 0.00 84 1005.1
20260507103050 70 303 22.0 30.0 0.00 0.00 0.00 84 1005.0
20260507101546 71 312 19.0 29.0 0.00 0.00 0.00 84 1004.8
20260507100040 71 308 19.0 28.0 0.00 0.00 0.00 84 1004.9
20260507094541 71 305 22.0 32.0 0.00 0.00 0.00 84 1005.0
20260507093036 71 304 16.0 30.0 0.00 0.00 0.00 84 1005.5
20260507091537 71 293 17.0 26.0 0.00 0.00 0.00 85 1005.9
20260507090033 71 312 18.0 27.0 0.00 0.00 0.00 85 1006.0